weather.gov     
National Weather Service

Regional Weather Roundup
NWS Homepage
This page is being discontinued on March 12, 2014.
The same data is available at this site. Please update your bookmarks.
Thank you, and we apologize for the inconvenience.
Please send an email to SR-SRH.Webmaster@noaa.gov with any concerns.


Current Version
Previous Version:    01  02  03  04  05  06  07  08  09  10  11  12  13  14  15  16  17  18  19  20  21  22  23  24  25  26  27  28  29  30  
   31  32  33  34  35  36  37  38  39  40  41  42  43  44  45  46  47  48  49  50  51  52  53  54  55  56  57  58  59  60  
[Printable]
443
ASUS44 KFWD 312215
RWRTX
NORTH TEXAS HOURLY WEATHER ROUNDUP
NATIONAL WEATHER SERVICE FORT WORTH TX
500 PM CDT FRI OCT 31 2014

NOTE: "FAIR" INDICATES FEW OR NO CLOUDS BELOW 12,000 FEET WITH NO
SIGNIFICANT WEATHER AND/OR OBSTRUCTIONS TO VISIBILITY.

TXZ118-119-312300-
DALLAS/FORT WORTH METROPLEX

CITY           SKY/WX    TMP DP  RH WIND       PRES   REMARKS
DFW AIRPORT    SUNNY     65  38  36 N20       30.29S
DALLAS LOVE    SUNNY     66  38  35 N13       30.29S
FTW MEACHAM    SUNNY     66  38  35 N14G24    30.29S
DAL-EXECUTIVE  SUNNY     67  38  34 N15       30.28S
FTW-ALLIANCE   SUNNY     64  37  36 N17       30.30S
FTW-NAS-JRB    SUNNY     69  36  29 N16       30.34R
FTW-SPINKS     SUNNY     66  37  34 N23G31    30.30S
ARLINGTON      SUNNY     66  37  34 N16       30.28F
GRAND PRAIRIE  SUNNY     64  41  42 MISG      30.30S
ADDISON        SUNNY     64  37  36 N17       30.30
MESQUITE       SUNNY     64  37  36 N13G20    30.29S
LANCASTER      SUNNY     65  36  34 N15G21    30.29S
$$

TXZ091>094-102>105-117-120-121-131>134-312300-
NORTH CENTRAL TEXAS

CITY           SKY/WX    TMP DP  RH WIND       PRES   REMARKS
SHRMAN/DENISON SUNNY     63  41  43 N16G22    30.32R
GAINESVILLE    SUNNY     61  37  41 N16       30.33S
BRIDGEPORT     SUNNY     64  40  40 N9        30.33S
DECATUR        SUNNY     62  36  37 NE6       30.32R
DENTON         SUNNY     64  37  36 NE14      30.31R
MCKINNEY       SUNNY     64  37  36 N14       30.29R
GREENVILLE     SUNNY     63  36  36 NE9       30.29R
ROCKWALL       SUNNY     64  38  38 N16G24    30.28R
TERRELL        SUNNY     66  40  38 N14G20    30.28R
WAXAHACHIE     SUNNY     65  41  40 N16G22    30.29S
CLEBURNE       SUNNY     66  39  37 N15       30.30S
GRANBURY       SUNNY     68  39  35 N12       30.30S
$$

TXZ083>090-098>101-113>116-127>130-139>142-154-155-312300-
WESTERN NORTH TEXAS

CITY           SKY/WX    TMP DP  RH WIND       PRES   REMARKS
WICHITA FALLS  SUNNY     63  33  32 NE13      30.34S
WF-KICKAPOO    SUNNY     63  31  30 N12       30.35S
VERNON         SUNNY     64  28  25 NE12G17   30.36S
ABILENE        SUNNY     68  33  27 N12       30.32S
ABILENE-DYESS  SUNNY     66  33  29 N14       30.32S
BRECKENRIDGE   SUNNY     67  34  29 N12       30.32R
GRAHAM         SUNNY     64  39  39 N10       30.31S
MINERAL WELLS  SUNNY     66  37  34 N9        30.30R
STEPHENVILLE   SUNNY     66  37  34 N7        30.32S
COMANCHE       SUNNY     67  39  36 N9G18     30.30S
BROWNWOOD      SUNNY     68  32  26 N9G16     30.30S
COLEMAN        SUNNY     69  35  29 N12       30.30S
BRADY          SUNNY     70  32  24 NE14      30.28S
$$

TXZ143>147-156>162-174-175-312300-
CENTRAL TEXAS

CITY           SKY/WX    TMP DP  RH WIND       PRES   REMARKS
WACO           SUNNY     68  39  34 N17       30.26S
WACO-TSTC      SUNNY     68  39  34 N17       30.26
WACO-MCGREGOR  SUNNY     70  39  32 N13       30.27S
HILLSBORO      SUNNY     67  38  34 N14G21    30.27S
CORSICANA      SUNNY     67  40  37 N13       30.28R
MEXIA          SUNNY     66  41  39 N13       30.25R
HEARNE         SUNNY     70  42  36 N15G22    30.23S
CAMERON        SUNNY     71  42  34 N16G22    30.23S
TEMPLE         SUNNY     70  37  30 N14G21    30.24S
KILLEEN        SUNNY     69  37  30 N17       30.25R
KILLEEN-SKYLRK SUNNY     70  37  30 N15G21    30.23R
GATESVILLE     SUNNY     70  39  32 N8        30.29R
HAMILTON       SUNNY     68  37  31 N14G24    30.29S
LAMPASAS       SUNNY     71  41  33 N8G17     30.26S
$$

TXZ095>097-106>112-122>126-135>138-148>153-164>167-312300-
EAST TEXAS

CITY           SKY/WX    TMP DP  RH WIND       PRES   REMARKS
PARIS          SUNNY     61  37  41 N16G22    30.30S
SULPHUR SPRNGS SUNNY     62  42  48 N18       30.30S
MOUNT PLEASANT SUNNY     64  41  42 NW17      30.28R
MINEOLA        SUNNY     64  37  36 N13       30.27S
TYLER          LGT RAIN  67  42  40 N15       30.24R
LONGVIEW       MOSUNNY   66  43  43 NW13G20   30.22R
MARSHALL       MOSUNNY   68  44  41 N13G20    30.24R
ATHENS         SUNNY     64  41  42 N12G20    30.25R
PALESTINE      SUNNY     67  44  42 N13       30.25S
JACKSONVILLE   SUNNY     66  41  39 N7        30.25R
HENDERSON      SUNNY     66  43  42 N7G17     30.24R
NACOGDOCHES    SUNNY     70  43  37 N12G21    30.21R
LUFKIN         SUNNY     73  43  33 N12G17    30.20R
$$

SUPPLEMENTAL OBSERVATIONS (CENTRAL)

CITY           SKY/WX    TMP DP  RH WIND       PRES   REMARKS
LAKE TEXOMA      N/A     63  37  39 N14         N/A
CADDO GRASSLND   N/A     63  39  42 VRB6G14     N/A
PAT MAYSE LAKE   N/A     61  37  41 NW14        N/A
GREENVILLE       N/A     63  37  39 N17G24      N/A
CEDAR HILL       N/A     66  39  37 N8G16       N/A
PALESTINE        N/A     66  41  39 N8G16       N/A
LAKE LIMESTONE   N/A     70  39  32 N13G21      N/A
MCGREGOR         N/A     70  39  32 N8G18       N/A
TEMPLE           N/A     70  39  32 N3G20       N/A
$$

SUPPLEMENTAL OBSERVATIONS (WEST)

CITY           SKY/WX    TMP DP  RH WIND       PRES   REMARKS
MILLERS CREEK    N/A     64  36  34 NE9         N/A
POSSUM KINGDOM   N/A     64  34  32 N9          N/A
LBJ GRASSLAND    N/A     64  37  36 N10         N/A
GRANBURY         N/A     66  37  34 N12         N/A
COMANCHE         N/A     66  37  34 N12         N/A
HAMBY            N/A     66  32  28 NE9G17      N/A
IVIE RESERVOIR   N/A     72  32  23 NE10G18     N/A
COLORADO BEND    N/A     70  34  26 N8G16       N/A
$$

SUPPLEMENTAL OBSERVATIONS (EAST)

CITY           SKY/WX    TMP DP  RH WIND       PRES   REMARKS
CLARKSVILLE      N/A     61  37  41 N9G18       N/A
TEXARKANA        N/A     66  39  37 N8G17       N/A
LINDEN           N/A     66  43  42 N5          N/A
CADDO LAKE       N/A     66  45  45 N3G13       N/A
GILMER           N/A     64  41  42 N7G17       N/A
HENDERSON        N/A     66  41  39 N15         N/A
LUFKIN           N/A     70  41  35 MISG        N/A
N SABINE NF      N/A     68  45  42 MISG        N/A
S SABINE NF      N/A     66  43  42 NW5G14      N/A
$$

SUPPLEMENTAL OBSERVATIONS ARE A COLLECTION OF AUTOMATED INSTRUMENTS
THAT ARE MAINTAINED BY A VARIETY OF FEDERAL AND STATE AGENCIES.
CERTAIN ELEMENTS...SUCH AS HUMIDITY VALUES AND SUSTAINED WIND
SPEEDS...MAY BE APPROXIMATED.





U.S. Dept. of Commerce
NOAA National Weather Service
1325 East West Highway
Silver Spring, MD 20910
E-mail: w-nws.webmaster@noaa.gov
Page last modified: May 16, 2007
NATIONAL WEATHER SERVICE: for Safety, for Work, for Fun - FOR LIFE